FW4085 Weather Reports


time (UTC)temp
C
wind
direction
speed
KPH
gust
KPH
rain 1hr
cm
rain 24hr
cm
rain mn
cm
humidity
%
barometer
mb
20260510171526 15 337 3.2 6.4 0.00 0.38 0.00 79 856.1
20260510170526 15 352 3.2 8.0 0.00 0.38 0.00 78 856.1
20260510165522 16 6 3.2 8.0 0.00 0.41 0.00 77 856.2
20260510164527 16 328 3.2 9.7 0.00 0.43 0.00 75 856.2
20260510163527 16 284 3.2 9.7 0.00 0.46 0.00 73 856.2
20260510162526 16 289 3.2 8.0 0.00 0.46 0.00 75 856.2
20260510161544 16 302 3.2 11.3 0.00 0.46 0.00 75 856.1
20260510160523 16 283 4.8 16.1 0.00 0.48 0.00 73 856.2
20260510155527 16 269 3.2 8.0 0.00 0.48 0.00 72 856.2
20260510154525 16 270 3.2 9.7 0.00 0.48 0.00 73 856.3
20260510153524 16 227 3.2 11.3 0.00 0.51 0.00 72 856.3
20260510152524 17 258 4.8 9.7 0.00 0.51 0.00 70 856.3
20260510151524 17 262 4.8 8.0 0.00 0.53 0.00 71 856.3
20260510150525 17 263 4.8 12.9 0.00 0.53 0.00 72 856.3
20260510145545 17 256 3.2 8.0 0.00 0.56 0.00 73 856.4
20260510144525 17 226 3.2 11.3 0.00 0.58 0.00 74 856.4
20260510143526 17 235 4.8 9.7 0.00 0.61 0.00 75 856.4
20260510142542 16 228 3.2 12.9 0.00 0.64 0.00 78 856.3
20260510141526 15 115 3.2 9.7 0.00 0.66 0.00 78 856.2
20260510140546 15 106 3.2 9.7 0.00 0.69 0.00 82 856.1
20260510135520 13 99 3.2 11.3 0.00 0.69 0.00 84 856.0
20260510134517 13 85 4.8 8.0 0.00 0.71 0.00 84 856.0
20260510133518 13 94 6.4 12.9 0.00 0.74 0.00 85 855.9
20260510132521 13 79 3.2 8.0 0.00 0.74 0.00 84 856.0
20260510131538 13 92 3.2 8.0 0.00 0.76 0.00 85 855.9
20260510130518 13 78 3.2 8.0 0.00 0.76 0.00 84 855.9
20260510125518 14 84 3.2 8.0 0.00 0.76 0.00 82 856.0
20260510124519 14 77 1.6 3.2 0.00 0.76 0.00 83 856.0
20260510123519 13 111 1.6 3.2 0.00 0.76 0.00 84 855.9
20260510122525 13 129 1.6 3.2 0.00 0.76 0.00 85 855.9
20260510121525 12 47 1.6 3.2 0.00 0.76 0.00 87 855.9
20260510120525 12 98 3.2 6.4 0.00 0.76 0.00 90 855.8
20260510115525 11 67 0.0 3.2 0.00 0.76 0.00 96 855.7
20260510114525 10 138 0.0 3.2 0.00 0.76 0.00 98 855.5
20260510113545 10 97 0.0 1.6 0.00 0.76 0.00 99 855.5
20260510112526 10 91 1.6 3.2 0.00 0.76 0.00 99 855.4
20260510111526 10 110 1.6 3.2 0.00 0.76 0.00 99 855.4
20260510110546 10 199 1.6 1.6 0.00 0.76 0.00 99 855.4
20260510105526 9 209 1.6 1.6 0.00 0.76 0.00 99 855.4
20260510104527 9 155 1.6 1.6 0.00 0.76 0.00 99 855.3
20260510103527 8 179 1.6 3.2 0.00 0.76 0.00 99 855.3
20260510102527 8 154 1.6 1.6 0.00 0.76 0.00 99 855.3
20260510101528 8 130 1.6 1.6 0.00 0.76 0.00 99 855.3
20260510100527 8 103 1.6 3.2 0.00 0.76 0.00 99 855.2
20260510095528 8 121 1.6 3.2 0.00 0.76 0.00 99 855.2
20260510094548 8 101 1.6 3.2 0.00 0.76 0.00 99 855.2
20260510093528 8 114 1.6 3.2 0.00 0.76 0.00 99 855.2
20260510092529 8 107 1.6 3.2 0.00 0.76 0.00 99 855.2
20260510091528 9 192 1.6 3.2 0.00 0.76 0.00 99 855.3
20260510090528 9 125 1.6 3.2 0.00 0.76 0.00 99 855.3
20260510085529 9 226 1.6 3.2 0.00 0.76 0.00 99 855.3
20260510084529 9 113 1.6 3.2 0.00 0.76 0.00 99 855.3
20260510083529 9 122 1.6 3.2 0.00 0.76 0.00 99 855.3
20260510082529 9 122 1.6 4.8 0.00 0.76 0.00 99 855.3
20260510081529 9 95 1.6 4.8 0.00 0.76 0.00 99 855.3
20260510080530 9 89 3.2 4.8 0.00 0.76 0.00 99 855.3
20260510075530 9 208 1.6 3.2 0.00 0.76 0.00 99 855.3
20260510074530 9 335 0.0 1.6 0.00 0.76 0.00 99 855.3
20260510073550 9 212 1.6 3.2 0.00 0.76 0.00 99 855.3
20260510072530 9 82 1.6 3.2 0.00 0.76 0.00 99 855.4
20260510071550 9 119 1.6 1.6 0.00 0.76 0.00 99 855.4
20260510070531 9 119 1.6 3.2 0.00 0.76 0.00 99 855.3
20260510065551 9 181 3.2 4.8 0.00 0.76 0.00 99 855.3
20260510064531 8 217 1.6 3.2 0.00 0.76 0.00 99 855.3
20260510063551 8 184 1.6 3.2 0.00 0.76 0.00 99 855.3
20260510062531 9 174 1.6 3.2 0.00 0.76 0.00 100 855.3
20260510061532 9 147 1.6 3.2 0.00 0.76 0.00 100 855.3
20260510060532 9 99 3.2 6.4 0.00 0.76 0.00 100 855.3
20260510055531 9 122 1.6 3.2 0.00 0.76 0.00 99 855.3
20260510054532 9 142 1.6 1.6 0.00 0.76 0.00 98 855.3
20260510053532 10 112 3.2 4.8 0.00 0.76 0.00 98 855.4
20260510052532 10 242 1.6 3.2 0.00 0.76 0.00 97 855.4
20260510051537 10 92 3.2 8.0 0.00 0.76 0.00 97 855.4
20260510050558 10 252 3.2 4.8 0.00 0.76 0.00 97 855.4
20260510045518 10 105 3.2 4.8 0.00 0.76 0.00 97 855.4
20260510044518 10 68 1.6 3.2 0.00 0.76 0.00 98 855.4
20260510043533 10 95 1.6 3.2 0.00 0.76 0.00 98 855.4
20260510042538 10 205 1.6 6.4 0.00 0.76 0.00 98 855.4
20260510041519 10 86 3.2 6.4 0.00 0.76 0.00 98 855.4
20260510040519 10 240 1.6 4.8 0.00 0.76 0.00 99 855.4
20260510035519 10 154 1.6 3.2 0.00 0.76 0.76 99 855.4
20260510034519 10 192 1.6 3.2 0.00 0.76 0.76 99 855.4
20260510033519 10 128 1.6 3.2 0.00 0.76 0.76 99 855.4
20260510032559 10 265 1.6 3.2 0.00 0.76 0.76 99 855.4
20260510031519 10 264 1.6 4.8 0.00 0.76 0.76 100 855.4
20260510030600 10 88 1.6 4.8 0.00 0.76 0.76 99 855.4
20260510025520 10 104 1.6 1.6 0.00 0.76 0.76 99 855.4
20260510024540 10 160 1.6 1.6 0.00 0.76 0.76 99 855.4
20260510023540 10 191 1.6 1.6 0.00 0.76 0.76 98 855.4
20260510022520 10 56 1.6 3.2 0.00 0.76 0.76 97 855.4
20260510021520 10 106 1.6 4.8 0.00 0.76 0.76 97 855.4
20260510020521 10 128 1.6 3.2 0.00 0.76 0.76 98 855.4
20260510015521 9 101 3.2 4.8 0.00 0.76 0.76 99 855.4
20260510014521 9 132 1.6 3.2 0.00 0.76 0.76 100 855.3
20260510013522 9 108 1.6 4.8 0.00 0.76 0.76 100 855.3
20260510012522 9 100 3.2 3.2 0.00 0.76 0.76 100 855.3
20260510011522 9 121 1.6 3.2 0.00 0.76 0.76 100 855.3
20260510010522 9 224 1.6 3.2 0.00 0.76 0.76 100 855.3
20260510005602 9 218 1.6 3.2 0.00 0.76 0.76 99 855.3
20260510004522 10 83 1.6 3.2 0.00 0.76 0.76 99 855.4
20260510003522 10 115 1.6 3.2 0.00 0.76 0.76 99 855.4
20260510002522 10 73 3.2 6.4 0.00 0.76 0.76 99 855.4
20260510001522 10 147 1.6 3.2 0.00 0.76 0.76 99 855.4
20260510000523 10 60 1.6 1.6 0.00 0.76 0.76 98 855.4
20260509235523 10 256 1.6 3.2 0.00 0.76 0.76 98 855.4
20260509234523 10 66 1.6 3.2 0.00 0.76 0.76 97 855.5
20260509233523 10 106 1.6 4.8 0.00 0.76 0.76 98 855.5
20260509232524 10 92 3.2 4.8 0.00 0.76 0.76 97 855.5
20260509231524 10 65 1.6 4.8 0.00 0.76 0.76 98 855.5
20260509230524 10 93 3.2 4.8 0.00 0.76 0.76 97 855.5
20260509225524 10 136 1.6 3.2 0.00 0.76 0.76 98 855.5
20260509224525 10 118 1.6 3.2 0.00 0.76 0.76 98 855.5
20260509223524 10 78 3.2 4.8 0.00 0.76 0.76 97 855.4
20260509222519 10 79 3.2 8.0 0.00 0.76 0.76 97 855.5
20260509221525 10 82 3.2 8.0 0.00 0.76 0.76 97 855.4
20260509220524 10 98 1.6 3.2 0.00 0.76 0.76 97 855.4
20260509215525 10 85 1.6 4.8 0.00 0.76 0.76 97 855.4
20260509214519 9 80 4.8 8.0 0.00 0.76 0.76 98 855.4
20260509213559 9 78 4.8 8.0 0.00 0.76 0.76 98 855.4
20260509212519 9 85 3.2 8.0 0.00 0.76 0.76 97 855.4
20260509211519 8 64 4.8 11.3 0.00 0.76 0.76 98 855.3
20260509210539 8 69 6.4 8.0 0.00 0.76 0.76 98 855.3
20260509205520 8 62 3.2 14.5 0.03 0.76 0.76 99 855.3
20260509204520 8 68 4.8 8.0 0.03 0.76 0.76 100 855.3
20260509203526 8 64 3.2 8.0 0.03 0.76 0.76 100 855.3
20260509202546 8 75 3.2 6.4 0.05 0.76 0.76 100 855.2
20260509201526 8 102 3.2 6.4 0.08 0.76 0.76 100 855.2
20260509200526 8 68 3.2 8.0 0.08 0.76 0.76 100 855.2
20260509195526 8 88 4.8 8.0 0.08 0.74 0.74 100 855.2
20260509194525 8 84 4.8 12.9 0.08 0.74 0.74 100 855.2
20260509193553 8 111 3.2 6.4 0.10 0.74 0.74 100 855.2
20260509192532 7 98 1.6 4.8 0.10 0.71 0.71 100 855.2
20260509191526 7 96 4.8 9.7 0.13 0.69 0.69 99 855.2
20260509190526 7 90 3.2 8.0 0.18 0.69 0.69 100 855.2
20260509185527 7 120 3.2 9.7 0.18 0.66 0.66 99 855.2
20260509184532 7 70 3.2 8.0 0.20 0.66 0.66 100 855.2
20260509183524 7 65 4.8 17.7 0.20 0.64 0.64 99 855.1
20260509182527 7 86 3.2 9.7 0.20 0.61 0.61 99 855.1
20260509181527 7 78 3.2 9.7 0.18 0.56 0.56 99 855.1
20260509180522 7 83 4.8 8.0 0.13 0.51 0.51 99 855.1
20260509175542 7 62 4.8 12.9 0.13 0.48 0.48 99 855.1
20260509174519 7 81 4.8 17.7 0.13 0.46 0.46 99 855.1
20260509173528 7 69 3.2 6.4 0.10 0.43 0.43 99 855.1
20260509172528 7 70 3.2 8.0 0.08 0.41 0.41 99 855.1